Portales, NM (88130)

11:16 PM MST on December 20, 2014 (GMT -0700)
S of ENMU | Change Station
CLOSE
Current Station
Personal Weather Station
Location: Portales, NM
Elevation: 4078 ft
Nearby Weather Stations

Elev 4078 ft 34.17 °N, 103.35 °W | Updated 2 seconds ago

Partly Cloudy
Partly Cloudy
38.2 °F
Feels Like 38 °F
N
2.7
Wind Variable Wind from NNW
Gusts 5.1 mph

Today
High -- | Low -- °F
--% Chance of Precip.
Yesterday
High -- | Low -- °F
Precip. -- in
6:54 AM 4:47 PM
Waning Crescent, 1% visible
Pressure 29.97 in
Visibility 10.0 miles
Clouds Clear
Windchill 38 °F
Dew Point 22 °F
Humidity 52%
Rainfall 0.00 in
Snow Depth Not available.
UV 0 out of 12
Pollen 7.10 out of 12
Air Quality Not available.
Flu Activity Not available.
METAR KCVS 210558Z AUTO 23007KT 10SM CLR 00/M07 A2997 RMK AO2 SLP147 T10021069 10074 21020 57010 $

More Conditions Fewer Conditions

Pressure 29.97 in
Visibility 10.0 miles
Clouds Clear
Windchill 38 °F
Dew Point 22 °F
Humidity 52%
Rainfall 0.00 in
Snow Depth Not available.
UV 0 out of 12
Pollen 7.10 out of 12
Air Quality Not available.
Flu Activity Not available.
METAR KCVS 210558Z AUTO 23007KT 10SM CLR 00/M07 A2997 RMK AO2 SLP147 T10021069 10074 21020 57010 $

More Conditions Fewer Conditions

10-Day Weather Forecast

Almanac

Astronomy

Dec. 20, 2014 Rise Set
Actual Time
Civil Twilight
Nautical Twilight
Astronomical Twilight
Moon
Length of Visible Light
Length of Day
Tomorrow will be .
, % of the Moon is Illuminated

Today's Extremes

State Highs State Lows

Community

WunderPhotos

Upload Photos

1,779,360 photos uploaded!

WunderBlogs® & News

Nearby

Air Quality

  Air Quality AQ Index Pollutant
Not available.

Snow Depth

Station Depth Elevation

Earthquake Activity

City Distance Mag. Time & Date
Minimum magnitude displayed is 2.5.

Coastal Water Temperatures

Place Temperature

Nearby Weather Stations